[[{"header":{"parameterUnit":"m.s-1","parameterCategory":1,"la1":30.2992,"la2":30.254,"lo1":-89.0895,"lo2":-89.0443,"dy":0.0025,"dx":0.0025,"nx":19,"ny":19,"refTime":"2026-03-26T21:00:00:Z","depth":0,"parameterNumber":2,"parameterNumberName":"U-component_of_WINDS"},"data":[0,0,0,-2.3833,-2.3835,-2.3891,-2.3891,-2.3971,-2.3972,0,0,0,0,0,0,0,0,0,0,0,-2.3822,-2.3823,-2.3833,-2.3835,-2.3891,-2.3891,-2.3971,-2.3972,0,0,0,0,0,0,0,0,0,0,0,-2.3822,-2.3823,-2.3823,-2.3835,-2.3891,-2.3891,-2.3971,-2.3925,0,0,0,0,0,0,0,0,0,0,-2.3869,-2.3864,-2.3822,-2.3824,-2.3835,-2.3891,-2.3891,-2.3923,-2.3928,-2.3949,0,-2.397,0,-2.3972,-2.3978,-2.3978,0,0,0,-2.383,-2.386,-2.387,-2.3824,-2.3836,-2.3891,-2.3864,-2.3926,-2.3932,-2.3956,-2.3971,-2.3974,-2.3974,-2.3978,-2.3979,-2.4116,-2.4117,0,0,-2.3827,-2.3835,-2.3866,-2.3874,-2.3867,-2.3863,-2.3866,-2.3929,-2.3946,-2.3971,-2.3975,-2.3975,-2.3979,-2.398,-2.4115,-2.4116,0,0,0,-2.3821,-2.3833,-2.3842,-2.3871,-2.3881,-2.3864,-2.3869,-2.3943,-2.3945,-2.3976,-2.3976,-2.3979,-2.3981,-2.4114,-2.4115,-2.4166,0,0,0,-2.3819,-2.3829,-2.384,-2.3846,-2.388,-2.3913,-2.3881,-2.3941,-2.3948,-2.3975,-2.398,-2.3981,-2.4113,-2.4115,-2.4162,-2.4189,0,0,0,-2.3816,-2.3829,-2.3839,-2.3846,-2.3871,-2.3912,-2.3917,-2.3942,-2.3948,-2.3978,-2.3982,-2.4113,-2.4115,-2.4159,-2.4184,-2.4228,0,0,0,-2.3816,-2.3882,-2.384,-2.3914,-2.387,-2.3942,-2.3917,-2.397,-2.4002,-2.398,-2.4113,-2.4115,-2.4158,-2.418,-2.4225,-2.4267,-2.4286,0,0,-2.3904,-2.3893,-2.3936,-2.39,-2.3982,-2.3933,-2.4021,-2.4043,-2.4038,-2.409,-2.4093,-2.4163,-2.4183,-2.4227,-2.4383,-2.4397,0,0,0,-2.3967,-2.3998,-2.4018,-2.4049,-2.4068,-2.4086,-2.4093,-2.4101,-2.4144,-2.4067,-2.419,-2.4202,-2.4227,-2.4247,-2.426,-2.4282,-2.4125,-2.4124,-2.4124,-2.4104,-2.4095,-2.4166,-2.4163,-2.4194,-2.42,-2.4224,-2.4236,-2.4217,-2.4246,-2.4262,-2.4358,-2.4382,-2.4391,-2.4414,-2.4283,-2.4283,-2.4283,-2.4283,-2.4234,-2.4277,-2.4251,-2.431,-2.43,-2.4349,-2.4357,-2.4342,-2.4386,-2.4345,-2.4367,-2.4324,-2.4407,-2.4427,-2.4287,-2.4286,-2.4286,-2.4285,-2.4285,-2.4325,-2.4344,-2.4352,-2.4397,-2.4431,-2.4425,-2.4469,-2.4457,-2.4446,-2.4468,-2.4484,-2.4483,-2.4482,-2.4476,-2.4476,-2.4477,-2.4477,-2.4477,-2.4478,-2.4416,-2.4423,-2.4463,-2.4487,-2.4506,-2.4529,-2.4535,-2.4553,-2.4569,-2.4557,-2.4557,-2.4536,-2.4417,-2.4388,-2.4483,-2.4482,-2.4481,-2.4481,-2.448,-2.4554,-2.4521,-2.4581,-2.46,-2.4627,-2.4663,-2.4647,-2.4683,-2.4696,-2.4718,-2.4691,-2.4605,-2.4593,-2.4583,-2.4559,-2.4693,-2.4693,-2.4693,-2.4693,-2.4631,-2.4624,-2.4683,-2.4713,-2.4742,-2.4733,-2.4801,-2.4806,-2.4806,-2.4813,-2.4791,-2.4758,-2.4748,-2.4742,-2.4729,-2.4707,-2.4874,-2.4875,-2.4875,-2.4716,-2.4711,-2.4772,-2.4772,-2.4793,-2.481,-2.4874,-2.4909,-2.4902,-2.4882,-2.4818,-2.4811,-2.4757,-2.474,-2.472,-2.47,-2.4658,0,0]},{"header":{"parameterUnit":"m.s-1","parameterCategory":1,"la1":30.2992,"la2":30.254,"lo1":-89.0895,"lo2":-89.0443,"dy":0.0025,"dx":0.0025,"nx":19,"ny":19,"refTime":"2026-03-26T21:00:00:Z","depth":0,"parameterNumber":3,"parameterNumberName":"V-component_of_WINDS"},"data":[0,0,0,-8.6269,-8.6272,-8.6432,-8.6433,-8.6645,-8.6647,0,0,0,0,0,0,0,0,0,0,0,-8.6229,-8.6231,-8.6268,-8.6273,-8.6432,-8.6433,-8.6644,-8.6647,0,0,0,0,0,0,0,0,0,0,0,-8.6228,-8.623,-8.6233,-8.6273,-8.6432,-8.6433,-8.6644,-8.652,0,0,0,0,0,0,0,0,0,0,-8.6362,-8.6335,-8.623,-8.6233,-8.6274,-8.6432,-8.6433,-8.6513,-8.6527,-8.6576,0,-8.6626,0,-8.664,-8.6662,-8.6662,0,0,0,-8.6265,-8.6323,-8.636,-8.6233,-8.6276,-8.6432,-8.6358,-8.6521,-8.6537,-8.6595,-8.6629,-8.6636,-8.6644,-8.6663,-8.6664,-8.6983,-8.6984,0,0,-8.6256,-8.6261,-8.6349,-8.6371,-8.6351,-8.6353,-8.6363,-8.653,-8.6566,-8.6629,-8.6641,-8.6647,-8.6665,-8.6666,-8.6981,-8.6983,0,0,0,-8.6236,-8.6255,-8.6287,-8.6362,-8.6391,-8.6358,-8.637,-8.6558,-8.6569,-8.6643,-8.665,-8.6666,-8.6669,-8.6979,-8.6982,-8.708,0,0,0,-8.623,-8.6243,-8.6284,-8.6288,-8.6388,-8.6477,-8.6394,-8.6557,-8.6576,-8.6649,-8.6666,-8.6671,-8.6977,-8.6981,-8.7073,-8.7124,0,0,0,-8.6216,-8.6241,-8.6268,-8.6288,-8.6358,-8.6475,-8.6494,-8.6561,-8.658,-8.6663,-8.6671,-8.6976,-8.698,-8.7067,-8.7114,-8.7212,0,0,0,-8.62,-8.6348,-8.6269,-8.6437,-8.6357,-8.6535,-8.6493,-8.6625,-8.6707,-8.6667,-8.6977,-8.6982,-8.7065,-8.7108,-8.7205,-8.7295,-8.7334,0,0,-8.639,-8.6371,-8.647,-8.6404,-8.6599,-8.651,-8.6718,-8.6786,-8.6787,-8.6916,-8.6924,-8.7075,-8.7113,-8.721,-8.7544,-8.7574,0,0,0,-8.6532,-8.6603,-8.6653,-8.6735,-8.6794,-8.6849,-8.6886,-8.6912,-8.7023,-8.6856,-8.7136,-8.7158,-8.7215,-8.7258,-8.7284,-8.7332,-8.7001,-8.7001,-8.7001,-8.6805,-8.6803,-8.6967,-8.6985,-8.7064,-8.7103,-8.7167,-8.7207,-8.7177,-8.7244,-8.7282,-8.7486,-8.7536,-8.7556,-8.7606,-8.7329,-8.7329,-8.733,-8.733,-8.7083,-8.7184,-8.7147,-8.7293,-8.7289,-8.7409,-8.7453,-8.7429,-8.7539,-8.7455,-8.7505,-8.7415,-8.7589,-8.7633,-8.7337,-8.7336,-8.7335,-8.7334,-8.7334,-8.7263,-8.7311,-8.7344,-8.7464,-8.7556,-8.7567,-8.7677,-8.7667,-8.7658,-8.7708,-8.7748,-8.7747,-8.7744,-8.7728,-8.7728,-8.7729,-8.773,-8.773,-8.7731,-8.7437,-8.747,-8.7566,-8.7645,-8.7698,-8.7765,-8.7808,-8.7858,-8.7911,-8.7895,-8.7895,-8.786,-8.7607,-8.7544,-8.7742,-8.774,-8.7738,-8.7737,-8.7737,-8.7721,-8.7656,-8.7805,-8.7859,-8.7951,-8.8044,-8.8032,-8.8135,-8.8175,-8.8229,-8.8185,-8.7999,-8.7978,-8.7957,-8.7906,-8.8184,-8.8184,-8.8184,-8.8184,-8.7873,-8.7863,-8.8015,-8.8102,-8.8185,-8.819,-8.8356,-8.8391,-8.8415,-8.8439,-8.8397,-8.8327,-8.8307,-8.8298,-8.827,-8.8221,-8.8574,-8.8574,-8.8575,-8.8048,-8.8047,-8.8192,-8.822,-8.8292,-8.8354,-8.851,-8.8608,-8.8621,-8.859,-8.8458,-8.8442,-8.8328,-8.8292,-8.8258,-8.8214,-8.8125,0,0]}]]